Starlink 31036

operational
NORAD ID: 58533 Int'l Des: 2023-192 Owner: SPXS Country: US Constellation: starlink
LEOCIRCULAR

About Starlink 31036

Description loading...

Live Position

Loading 3D Globe...

Upcoming Passes

Altitude History

Altitude vs Time

uPlot chart will show altitude changes over time

Two-Line Element Set

1 58533U 23192C 25305.22551685 .00003711 00000-0 13746-3 0 9996
2 58533 53.1611 299.7092 0001408 99.1101 261.0059 15.30174796106312
Epoch: Nov 1, 2025 • Age: 21 hours

Current Status

Altitude 475.1 km
Velocity 7.63 km/s
Sub-Earth Point 8.18°N, 29.91°E
Launch Date Dec 8, 2023
Age 1.9 years
Type internet

Technical Details

Classification Payload
Mass 730.00 kg
Dry Mass 700.00 kg
Total Mass 730.00 kg
Length 0.30 m
Diameter 4.10 m
Span 29.00 m
Shape Box + pan
Manufacturer SPXS
Bus Type Starlink V2M
Phase Status In Orbit
Owner/State SPXS/US

Large Constellations

Loading constellations...